#datetime,building,power
2023-09-10T00:00:00,75s,1.23
2023-09-10T00:01:00,75s,1.45
2023-09-10T00:02:00,75s,1.23
2023-09-10T00:03:00,75s,1.25
2023-09-10T00:04:00,75s,1.25
2023-09-10T00:05:00,75s,1.29
2023-09-10T00:06:00,75s,1.29
2023-09-10T00:07:00,75s,1.35
2023-09-10T00:08:00,75s,1.47
2023-09-10T00:09:00,75s,1.43
2023-09-10T00:10:00,75s,1.43
2023-09-10T00:11:00,75s,1.33
2023-09-10T00:12:00,75s,1.32
2023-09-10T00:13:00,75s,1.31
2023-09-10T00:14:00,75s,1.63
2023-09-10T00:15:00,75s,1.33
2023-09-10T00:16:00,75s,1.30
2023-09-10T00:17:00,75s,1.30
2023-09-10T00:18:00,75s,1.67
2023-09-10T00:19:00,75s,1.31
2023-09-10T00:20:00,75s,1.30
2023-09-10T00:21:00,75s,1.38
2023-09-10T00:22:00,75s,1.46
2023-09-10T00:23:00,75s,1.46
2023-09-10T00:24:00,75s,1.30
2023-09-10T00:25:00,75s,1.23
2023-09-10T00:26:00,75s,1.22
2023-09-10T00:27:00,75s,1.22
2023-09-10T00:28:00,75s,1.19
2023-09-10T00:29:00,75s,1.50
2023-09-10T00:30:00,75s,1.62
2023-09-10T00:31:00,75s,1.20
2023-09-10T00:32:00,75s,1.19
2023-09-10T00:33:00,75s,1.23
2023-09-10T00:34:00,75s,1.27
2023-09-10T00:35:00,75s,1.36
2023-09-10T00:36:00,75s,1.55
2023-09-10T00:37:00,75s,1.24
2023-09-10T00:38:00,75s,1.31
2023-09-10T00:39:00,75s,1.31
2023-09-10T00:40:00,75s,1.32
2023-09-10T00:41:00,75s,1.31
2023-09-10T00:42:00,75s,1.23
2023-09-10T00:43:00,75s,1.23
2023-09-10T00:44:00,75s,1.24
2023-09-10T00:45:00,75s,1.24
2023-09-10T00:46:00,75s,1.31
2023-09-10T00:47:00,75s,1.32
2023-09-10T00:48:00,75s,1.23
2023-09-10T00:49:00,75s,1.24
2023-09-10T00:50:00,75s,1.23
2023-09-10T00:51:00,75s,1.30
2023-09-10T00:52:00,75s,1.31
2023-09-10T00:53:00,75s,1.31
2023-09-10T00:54:00,75s,1.22
2023-09-10T00:55:00,75s,1.23
2023-09-10T00:56:00,75s,1.25
2023-09-10T00:57:00,75s,1.35
2023-09-10T00:58:00,75s,1.64
2023-09-10T00:59:00,75s,1.38
2023-09-10T01:00:00,75s,1.34
2023-09-10T01:01:00,75s,1.32
2023-09-10T01:02:00,75s,1.32
2023-09-10T01:03:00,75s,1.40
2023-09-10T01:04:00,75s,1.41
2023-09-10T01:05:00,75s,1.42
2023-09-10T01:06:00,75s,1.41
2023-09-10T01:07:00,75s,1.40
2023-09-10T01:08:00,75s,1.38
2023-09-10T01:09:00,75s,1.67
2023-09-10T01:10:00,75s,1.44
2023-09-10T01:11:00,75s,1.44
2023-09-10T01:12:00,75s,1.37
2023-09-10T01:13:00,75s,1.35
2023-09-10T01:14:00,75s,1.31
2023-09-10T01:15:00,75s,1.39
2023-09-10T01:16:00,75s,1.39
2023-09-10T01:17:00,75s,1.39
2023-09-10T01:18:00,75s,1.31
2023-09-10T01:19:00,75s,1.30
2023-09-10T01:20:00,75s,1.42
2023-09-10T01:21:00,75s,1.39
2023-09-10T01:22:00,75s,1.62
2023-09-10T01:23:00,75s,1.30
2023-09-10T01:24:00,75s,1.42
2023-09-10T01:25:00,75s,1.23
2023-09-10T01:26:00,75s,1.39
2023-09-10T01:27:00,75s,1.64
2023-09-10T01:28:00,75s,1.51
2023-09-10T01:29:00,75s,1.58
2023-09-10T01:30:00,75s,1.29
2023-09-10T01:31:00,75s,1.22
2023-09-10T01:32:00,75s,1.24
2023-09-10T01:33:00,75s,1.34
2023-09-10T01:34:00,75s,1.67
2023-09-10T01:35:00,75s,1.22
2023-09-10T01:36:00,75s,1.23
2023-09-10T01:37:00,75s,1.55
2023-09-10T01:38:00,75s,1.61
2023-09-10T01:39:00,75s,1.25
2023-09-10T01:40:00,75s,1.26
2023-09-10T01:41:00,75s,1.17
2023-09-10T01:42:00,75s,1.18
2023-09-10T01:43:00,75s,1.18
2023-09-10T01:44:00,75s,1.23
2023-09-10T01:45:00,75s,1.64
2023-09-10T01:46:00,75s,1.27
2023-09-10T01:47:00,75s,1.27
2023-09-10T01:48:00,75s,1.30
2023-09-10T01:49:00,75s,1.30
2023-09-10T01:50:00,75s,1.31
2023-09-10T01:51:00,75s,1.30
2023-09-10T01:52:00,75s,1.22
2023-09-10T01:53:00,75s,1.22
2023-09-10T01:54:00,75s,1.21
2023-09-10T01:55:00,75s,1.21
2023-09-10T01:56:00,75s,1.21
2023-09-10T01:57:00,75s,1.66
2023-09-10T01:58:00,75s,1.22
2023-09-10T01:59:00,75s,1.24
2023-09-10T02:00:00,75s,1.32
2023-09-10T02:01:00,75s,1.28
2023-09-10T02:02:00,75s,1.19
2023-09-10T02:03:00,75s,1.12
2023-09-10T02:04:00,75s,1.28
2023-09-10T02:05:00,75s,1.35
2023-09-10T02:06:00,75s,1.35
2023-09-10T02:07:00,75s,1.28
2023-09-10T02:08:00,75s,1.60
2023-09-10T02:09:00,75s,1.59
2023-09-10T02:10:00,75s,1.27
2023-09-10T02:11:00,75s,1.27
2023-09-10T02:12:00,75s,1.27
2023-09-10T02:13:00,75s,1.34
2023-09-10T02:14:00,75s,1.34
2023-09-10T02:15:00,75s,1.73
2023-09-10T02:16:00,75s,1.30
2023-09-10T02:17:00,75s,1.26
2023-09-10T02:18:00,75s,1.26
2023-09-10T02:19:00,75s,1.34
2023-09-10T02:20:00,75s,1.34
2023-09-10T02:21:00,75s,1.63
2023-09-10T02:22:00,75s,1.18
2023-09-10T02:23:00,75s,1.19
2023-09-10T02:24:00,75s,1.34
2023-09-10T02:25:00,75s,1.17
2023-09-10T02:26:00,75s,1.17
2023-09-10T02:27:00,75s,1.17
2023-09-10T02:28:00,75s,1.19
2023-09-10T02:29:00,75s,10.47
2023-09-10T02:30:00,75s,10.43
2023-09-10T02:31:00,75s,10.43
2023-09-10T02:32:00,75s,10.48
2023-09-10T02:33:00,75s,10.51
2023-09-10T02:34:00,75s,1.39
2023-09-10T02:35:00,75s,1.31
2023-09-10T02:36:00,75s,1.31
2023-09-10T02:37:00,75s,1.31
2023-09-10T02:38:00,75s,1.32
2023-09-10T02:39:00,75s,1.39
2023-09-10T02:40:00,75s,1.46
2023-09-10T02:41:00,75s,1.26
2023-09-10T02:42:00,75s,1.27
2023-09-10T02:43:00,75s,1.27
2023-09-10T02:44:00,75s,1.36
2023-09-10T02:45:00,75s,1.43
2023-09-10T02:46:00,75s,1.43
2023-09-10T02:47:00,75s,1.34
2023-09-10T02:48:00,75s,1.21
2023-09-10T02:49:00,75s,1.23
2023-09-10T02:50:00,75s,1.22
2023-09-10T02:51:00,75s,1.23
2023-09-10T02:52:00,75s,1.23
2023-09-10T02:53:00,75s,1.40
2023-09-10T02:54:00,75s,1.22
2023-09-10T02:55:00,75s,1.22
2023-09-10T02:56:00,75s,1.63
2023-09-10T02:57:00,75s,1.38
2023-09-10T02:58:00,75s,1.81
2023-09-10T02:59:00,75s,1.28
2023-09-10T03:00:00,75s,1.25
2023-09-10T03:01:00,75s,1.24
2023-09-10T03:02:00,75s,1.56
2023-09-10T03:03:00,75s,1.31
2023-09-10T03:04:00,75s,1.31
2023-09-10T03:05:00,75s,1.56
2023-09-10T03:06:00,75s,1.32
2023-09-10T03:07:00,75s,1.31
2023-09-10T03:08:00,75s,1.47
2023-09-10T03:09:00,75s,1.47
2023-09-10T03:10:00,75s,1.52
2023-09-10T03:11:00,75s,1.32
2023-09-10T03:12:00,75s,1.31
2023-09-10T03:13:00,75s,1.33
2023-09-10T03:14:00,75s,1.33
2023-09-10T03:15:00,75s,1.31
2023-09-10T03:16:00,75s,1.32
2023-09-10T03:17:00,75s,1.36
2023-09-10T03:18:00,75s,1.36
2023-09-10T03:19:00,75s,1.43
2023-09-10T03:20:00,75s,1.60
2023-09-10T03:21:00,75s,1.43
2023-09-10T03:22:00,75s,1.35
2023-09-10T03:23:00,75s,1.73
2023-09-10T03:24:00,75s,1.27
2023-09-10T03:25:00,75s,1.29
2023-09-10T03:26:00,75s,1.27
2023-09-10T03:27:00,75s,1.27
2023-09-10T03:28:00,75s,1.27
2023-09-10T03:29:00,75s,1.27
2023-09-10T03:30:00,75s,1.35
2023-09-10T03:31:00,75s,1.34
2023-09-10T03:32:00,75s,1.42
2023-09-10T03:33:00,75s,1.37
2023-09-10T03:34:00,75s,1.31
2023-09-10T03:35:00,75s,1.23
2023-09-10T03:36:00,75s,1.39
2023-09-10T03:37:00,75s,1.25
2023-09-10T03:38:00,75s,1.22
2023-09-10T03:39:00,75s,1.21
2023-09-10T03:40:00,75s,1.22
2023-09-10T03:41:00,75s,1.22
2023-09-10T03:42:00,75s,1.30
2023-09-10T03:43:00,75s,1.30
2023-09-10T03:44:00,75s,1.48
2023-09-10T03:45:00,75s,1.31
2023-09-10T03:46:00,75s,1.31
2023-09-10T03:47:00,75s,1.23
2023-09-10T03:48:00,75s,1.22
2023-09-10T03:49:00,75s,1.22
2023-09-10T03:50:00,75s,1.86
2023-09-10T03:51:00,75s,1.42
2023-09-10T03:52:00,75s,1.17
2023-09-10T03:53:00,75s,1.25
2023-09-10T03:54:00,75s,1.25
2023-09-10T03:55:00,75s,1.26
2023-09-10T03:56:00,75s,1.17
2023-09-10T03:57:00,75s,1.22
2023-09-10T03:58:00,75s,1.20
2023-09-10T03:59:00,75s,1.20
2023-09-10T04:00:00,75s,1.23
2023-09-10T04:01:00,75s,1.21
2023-09-10T04:02:00,75s,1.59
2023-09-10T04:03:00,75s,1.21
2023-09-10T04:04:00,75s,1.36
2023-09-10T04:05:00,75s,1.33
2023-09-10T04:06:00,75s,1.33
2023-09-10T04:07:00,75s,1.32
2023-09-10T04:08:00,75s,1.25
2023-09-10T04:09:00,75s,1.25
2023-09-10T04:10:00,75s,1.25
2023-09-10T04:11:00,75s,1.27
2023-09-10T04:12:00,75s,1.25
2023-09-10T04:13:00,75s,1.48
2023-09-10T04:14:00,75s,1.33
2023-09-10T04:15:00,75s,1.33
2023-09-10T04:16:00,75s,1.32
2023-09-10T04:17:00,75s,1.31
2023-09-10T04:18:00,75s,1.24
2023-09-10T04:19:00,75s,1.23
2023-09-10T04:20:00,75s,1.48
2023-09-10T04:21:00,75s,1.44
2023-09-10T04:22:00,75s,1.26
2023-09-10T04:23:00,75s,1.32
2023-09-10T04:24:00,75s,1.26
2023-09-10T04:25:00,75s,1.24
2023-09-10T04:26:00,75s,1.24
2023-09-10T04:27:00,75s,1.23
2023-09-10T04:28:00,75s,1.24
2023-09-10T04:29:00,75s,1.31
2023-09-10T04:30:00,75s,1.34
2023-09-10T04:31:00,75s,1.33
2023-09-10T04:32:00,75s,1.24
2023-09-10T04:33:00,75s,1.24
2023-09-10T04:34:00,75s,1.25
2023-09-10T04:35:00,75s,1.32
2023-09-10T04:36:00,75s,1.37
2023-09-10T04:37:00,75s,1.35
2023-09-10T04:38:00,75s,1.24
2023-09-10T04:39:00,75s,1.24
2023-09-10T04:40:00,75s,2.08
2023-09-10T04:41:00,75s,1.56
2023-09-10T04:42:00,75s,1.31
2023-09-10T04:43:00,75s,1.31
2023-09-10T04:44:00,75s,1.31
2023-09-10T04:45:00,75s,1.37
2023-09-10T04:46:00,75s,1.23
2023-09-10T04:47:00,75s,1.23
2023-09-10T04:48:00,75s,1.31
2023-09-10T04:49:00,75s,1.31
2023-09-10T04:50:00,75s,1.83
2023-09-10T04:51:00,75s,1.26
2023-09-10T04:52:00,75s,1.28
2023-09-10T04:53:00,75s,1.29
2023-09-10T04:54:00,75s,1.35
2023-09-10T04:55:00,75s,1.35
2023-09-10T04:56:00,75s,1.37
2023-09-10T04:57:00,75s,1.27
2023-09-10T04:58:00,75s,1.27
2023-09-10T04:59:00,75s,1.45
2023-09-10T05:00:00,75s,1.45
2023-09-10T05:01:00,75s,1.44
2023-09-10T05:02:00,75s,1.35
2023-09-10T05:03:00,75s,1.50
2023-09-10T05:04:00,75s,1.36
2023-09-10T05:05:00,75s,1.88
2023-09-10T05:06:00,75s,1.43
2023-09-10T05:07:00,75s,1.43
2023-09-10T05:08:00,75s,1.41
2023-09-10T05:09:00,75s,1.31
2023-09-10T05:10:00,75s,1.31
2023-09-10T05:11:00,75s,1.40
2023-09-10T05:12:00,75s,1.51
2023-09-10T05:13:00,75s,1.39
2023-09-10T05:14:00,75s,1.31
2023-09-10T05:15:00,75s,1.31
2023-09-10T05:16:00,75s,1.31
2023-09-10T05:17:00,75s,1.82
2023-09-10T05:18:00,75s,1.30
2023-09-10T05:19:00,75s,1.31
2023-09-10T05:20:00,75s,1.23
2023-09-10T05:21:00,75s,1.22
2023-09-10T05:22:00,75s,1.30
2023-09-10T05:23:00,75s,1.30
2023-09-10T05:24:00,75s,1.30
2023-09-10T05:25:00,75s,1.22
2023-09-10T05:26:00,75s,1.22
2023-09-10T05:27:00,75s,1.22
2023-09-10T05:28:00,75s,1.23
2023-09-10T05:29:00,75s,1.32
2023-09-10T05:30:00,75s,1.31
2023-09-10T05:31:00,75s,1.31
2023-09-10T05:32:00,75s,1.23
2023-09-10T05:33:00,75s,1.23
2023-09-10T05:34:00,75s,1.31
2023-09-10T05:35:00,75s,1.30
2023-09-10T05:36:00,75s,1.30
2023-09-10T05:37:00,75s,1.28
2023-09-10T05:38:00,75s,1.27
2023-09-10T05:39:00,75s,1.26
2023-09-10T05:40:00,75s,1.27
2023-09-10T05:41:00,75s,1.35
2023-09-10T05:42:00,75s,1.59
2023-09-10T05:43:00,75s,1.34
2023-09-10T05:44:00,75s,1.27
2023-09-10T05:45:00,75s,1.36
2023-09-10T05:46:00,75s,1.37
2023-09-10T05:47:00,75s,1.35
2023-09-10T05:48:00,75s,1.26
2023-09-10T05:49:00,75s,1.27
2023-09-10T05:50:00,75s,1.26
2023-09-10T05:51:00,75s,1.26
2023-09-10T05:52:00,75s,1.43
2023-09-10T05:53:00,75s,1.29
2023-09-10T05:54:00,75s,1.29
2023-09-10T05:55:00,75s,1.16
2023-09-10T05:56:00,75s,1.17
2023-09-10T05:57:00,75s,1.33
2023-09-10T05:58:00,75s,1.33
2023-09-10T05:59:00,75s,1.27
2023-09-10T06:00:00,75s,1.31
2023-09-10T06:01:00,75s,2.03
2023-09-10T06:02:00,75s,2.69
2023-09-10T06:03:00,75s,3.75
2023-09-10T06:04:00,75s,3.56
2023-09-10T06:05:00,75s,3.50
2023-09-10T06:06:00,75s,13.50
2023-09-10T06:07:00,75s,13.63
2023-09-10T06:08:00,75s,13.73
2023-09-10T06:09:00,75s,13.72
2023-09-10T06:10:00,75s,13.71
2023-09-10T06:11:00,75s,13.75
2023-09-10T06:12:00,75s,13.82
2023-09-10T06:13:00,75s,14.07
2023-09-10T06:14:00,75s,13.79
2023-09-10T06:15:00,75s,13.70
2023-09-10T06:16:00,75s,24.47
2023-09-10T06:17:00,75s,26.40
2023-09-10T06:18:00,75s,25.24
2023-09-10T06:19:00,75s,24.82
2023-09-10T06:20:00,75s,24.26
2023-09-10T06:21:00,75s,22.22
2023-09-10T06:22:00,75s,19.66
2023-09-10T06:23:00,75s,19.60
2023-09-10T06:24:00,75s,14.15
2023-09-10T06:25:00,75s,13.93
2023-09-10T06:26:00,75s,13.94
2023-09-10T06:27:00,75s,14.03
2023-09-10T06:28:00,75s,14.22
2023-09-10T06:29:00,75s,14.06
2023-09-10T06:30:00,75s,14.68
2023-09-10T06:31:00,75s,14.50
2023-09-10T06:32:00,75s,14.46
2023-09-10T06:33:00,75s,14.50
2023-09-10T06:34:00,75s,14.47
2023-09-10T06:35:00,75s,14.46
2023-09-10T06:36:00,75s,3.98
2023-09-10T06:37:00,75s,4.08
2023-09-10T06:38:00,75s,4.07
2023-09-10T06:39:00,75s,4.06
2023-09-10T06:40:00,75s,4.23
2023-09-10T06:41:00,75s,3.95
2023-09-10T06:42:00,75s,3.88
2023-09-10T06:43:00,75s,3.88
2023-09-10T06:44:00,75s,3.88
2023-09-10T06:45:00,75s,4.05
2023-09-10T06:46:00,75s,14.52
2023-09-10T06:47:00,75s,14.52
2023-09-10T06:48:00,75s,14.52
2023-09-10T06:49:00,75s,14.80
2023-09-10T06:50:00,75s,14.69
2023-09-10T06:51:00,75s,14.76
2023-09-10T06:52:00,75s,14.68
2023-09-10T06:53:00,75s,14.66
2023-09-10T06:54:00,75s,14.59
2023-09-10T06:55:00,75s,14.58
2023-09-10T06:56:00,75s,25.49
2023-09-10T06:57:00,75s,25.62
2023-09-10T06:58:00,75s,25.35
2023-09-10T06:59:00,75s,26.36
2023-09-10T07:00:00,75s,24.38
2023-09-10T07:01:00,75s,22.50
2023-09-10T07:02:00,75s,20.46
2023-09-10T07:03:00,75s,20.82
2023-09-10T07:04:00,75s,20.52
2023-09-10T07:05:00,75s,20.51
2023-09-10T07:06:00,75s,20.33
2023-09-10T07:07:00,75s,20.35
2023-09-10T07:08:00,75s,20.32
2023-09-10T07:09:00,75s,14.61
2023-09-10T07:10:00,75s,14.66
2023-09-10T07:11:00,75s,14.64
2023-09-10T07:12:00,75s,14.64
2023-09-10T07:13:00,75s,14.59
2023-09-10T07:14:00,75s,14.69
2023-09-10T07:15:00,75s,14.74
2023-09-10T07:16:00,75s,14.75
2023-09-10T07:17:00,75s,14.94
2023-09-10T07:18:00,75s,14.58
2023-09-10T07:19:00,75s,14.58
2023-09-10T07:20:00,75s,14.60
2023-09-10T07:21:00,75s,14.59
2023-09-10T07:22:00,75s,14.60
2023-09-10T07:23:00,75s,14.60
2023-09-10T07:24:00,75s,14.62
2023-09-10T07:25:00,75s,14.70
2023-09-10T07:26:00,75s,14.95
2023-09-10T07:27:00,75s,14.74
2023-09-10T07:28:00,75s,14.67
2023-09-10T07:29:00,75s,14.57
2023-09-10T07:30:00,75s,4.37
2023-09-10T07:31:00,75s,4.14
2023-09-10T07:32:00,75s,13.42
2023-09-10T07:33:00,75s,13.23
2023-09-10T07:34:00,75s,13.16
2023-09-10T07:35:00,75s,13.07
2023-09-10T07:36:00,75s,13.04
2023-09-10T07:37:00,75s,13.06
2023-09-10T07:38:00,75s,4.73
2023-09-10T07:39:00,75s,4.37
2023-09-10T07:40:00,75s,14.80
2023-09-10T07:41:00,75s,14.76
2023-09-10T07:42:00,75s,14.72
2023-09-10T07:43:00,75s,14.70
2023-09-10T07:44:00,75s,14.69
2023-09-10T07:45:00,75s,14.63
2023-09-10T07:46:00,75s,14.61
2023-09-10T07:47:00,75s,14.63
2023-09-10T07:48:00,75s,15.01
2023-09-10T07:49:00,75s,14.84
2023-09-10T07:50:00,75s,25.91
2023-09-10T07:51:00,75s,20.44
2023-09-10T07:52:00,75s,25.07
2023-09-10T07:53:00,75s,25.69
2023-09-10T07:54:00,75s,27.01
2023-09-10T07:55:00,75s,26.64
2023-09-10T07:56:00,75s,26.62
2023-09-10T07:57:00,75s,25.78
2023-09-10T07:58:00,75s,25.44
2023-09-10T07:59:00,75s,23.51
2023-09-10T08:00:00,75s,23.77
2023-09-10T08:01:00,75s,21.52
2023-09-10T08:02:00,75s,20.56
2023-09-10T08:03:00,75s,20.62
2023-09-10T08:04:00,75s,20.57
2023-09-10T08:05:00,75s,20.73
2023-09-10T08:06:00,75s,20.45
2023-09-10T08:07:00,75s,20.41
2023-09-10T08:08:00,75s,14.75
2023-09-10T08:09:00,75s,14.75
2023-09-10T08:10:00,75s,14.75
2023-09-10T08:11:00,75s,14.42
2023-09-10T08:12:00,75s,14.48
2023-09-10T08:13:00,75s,14.42
2023-09-10T08:14:00,75s,14.38
2023-09-10T08:15:00,75s,14.30
2023-09-10T08:16:00,75s,14.32
2023-09-10T08:17:00,75s,14.31
2023-09-10T08:18:00,75s,14.37
2023-09-10T08:19:00,75s,14.38
2023-09-10T08:20:00,75s,14.37
2023-09-10T08:21:00,75s,14.54
2023-09-10T08:22:00,75s,14.29
2023-09-10T08:23:00,75s,14.60
2023-09-10T08:24:00,75s,14.25
2023-09-10T08:25:00,75s,14.29
2023-09-10T08:26:00,75s,14.40
2023-09-10T08:27:00,75s,14.34
2023-09-10T08:28:00,75s,14.36
2023-09-10T08:29:00,75s,14.29
2023-09-10T08:30:00,75s,14.28
2023-09-10T08:31:00,75s,14.58
2023-09-10T08:32:00,75s,14.32
2023-09-10T08:33:00,75s,14.32
2023-09-10T08:34:00,75s,14.48
2023-09-10T08:35:00,75s,14.25
2023-09-10T08:36:00,75s,14.25
2023-09-10T08:37:00,75s,14.24
2023-09-10T08:38:00,75s,14.23
2023-09-10T08:39:00,75s,14.23
2023-09-10T08:40:00,75s,14.25
2023-09-10T08:41:00,75s,14.26
2023-09-10T08:42:00,75s,14.33
2023-09-10T08:43:00,75s,14.46
2023-09-10T08:44:00,75s,14.45
2023-09-10T08:45:00,75s,14.59
2023-09-10T08:46:00,75s,14.47
2023-09-10T08:47:00,75s,14.51
2023-09-10T08:48:00,75s,14.49
2023-09-10T08:49:00,75s,14.71
2023-09-10T08:50:00,75s,14.37
2023-09-10T08:51:00,75s,14.38
2023-09-10T08:52:00,75s,14.39
2023-09-10T08:53:00,75s,14.47
2023-09-10T08:54:00,75s,15.05
2023-09-10T08:55:00,75s,14.56
2023-09-10T08:56:00,75s,14.70
2023-09-10T08:57:00,75s,14.48
2023-09-10T08:58:00,75s,14.48
2023-09-10T08:59:00,75s,14.57
2023-09-10T09:00:00,75s,14.51
2023-09-10T09:01:00,75s,14.50
2023-09-10T09:02:00,75s,14.43
2023-09-10T09:03:00,75s,14.44
2023-09-10T09:04:00,75s,14.44
2023-09-10T09:05:00,75s,14.45
2023-09-10T09:06:00,75s,14.49
2023-09-10T09:07:00,75s,14.49
2023-09-10T09:08:00,75s,14.52
2023-09-10T09:09:00,75s,14.65
2023-09-10T09:10:00,75s,14.34
2023-09-10T09:11:00,75s,14.52
2023-09-10T09:12:00,75s,14.40
2023-09-10T09:13:00,75s,14.78
2023-09-10T09:14:00,75s,14.42
2023-09-10T09:15:00,75s,14.31
2023-09-10T09:16:00,75s,14.30
2023-09-10T09:17:00,75s,14.39
2023-09-10T09:18:00,75s,14.37
2023-09-10T09:19:00,75s,14.39
2023-09-10T09:20:00,75s,14.28
2023-09-10T09:21:00,75s,14.41
2023-09-10T09:22:00,75s,14.32
2023-09-10T09:23:00,75s,14.30
2023-09-10T09:24:00,75s,14.37
2023-09-10T09:25:00,75s,14.36
2023-09-10T09:26:00,75s,14.39
2023-09-10T09:27:00,75s,14.30
2023-09-10T09:28:00,75s,14.39
2023-09-10T09:29:00,75s,14.43
2023-09-10T09:30:00,75s,14.43
2023-09-10T09:31:00,75s,14.36
2023-09-10T09:32:00,75s,14.72
2023-09-10T09:33:00,75s,14.31
2023-09-10T09:34:00,75s,14.31
2023-09-10T09:35:00,75s,14.33
2023-09-10T09:36:00,75s,14.41
2023-09-10T09:37:00,75s,14.38
2023-09-10T09:38:00,75s,4.07
2023-09-10T09:39:00,75s,3.78
2023-09-10T09:40:00,75s,3.86
2023-09-10T09:41:00,75s,4.07
2023-09-10T09:42:00,75s,3.84
2023-09-10T09:43:00,75s,3.79
2023-09-10T09:44:00,75s,3.78
2023-09-10T09:45:00,75s,3.80
2023-09-10T09:46:00,75s,3.77
2023-09-10T09:47:00,75s,3.78
2023-09-10T09:48:00,75s,14.32
2023-09-10T09:49:00,75s,14.63
2023-09-10T09:50:00,75s,14.62
2023-09-10T09:51:00,75s,14.63
2023-09-10T09:52:00,75s,14.50
2023-09-10T09:53:00,75s,14.31
2023-09-10T09:54:00,75s,14.39
2023-09-10T09:55:00,75s,14.43
2023-09-10T09:56:00,75s,14.39
2023-09-10T09:57:00,75s,14.29
2023-09-10T09:58:00,75s,26.14
2023-09-10T09:59:00,75s,25.85
2023-09-10T10:00:00,75s,25.91
2023-09-10T10:01:00,75s,20.08
2023-09-10T10:02:00,75s,19.96
2023-09-10T10:03:00,75s,19.96
2023-09-10T10:04:00,75s,20.04
2023-09-10T10:05:00,75s,20.02
2023-09-10T10:06:00,75s,20.08
2023-09-10T10:07:00,75s,20.09
2023-09-10T10:08:00,75s,20.03
2023-09-10T10:09:00,75s,20.03
2023-09-10T10:10:00,75s,20.13
2023-09-10T10:11:00,75s,20.05
2023-09-10T10:12:00,75s,20.39
2023-09-10T10:13:00,75s,20.10
2023-09-10T10:14:00,75s,20.12
2023-09-10T10:15:00,75s,20.09
2023-09-10T10:16:00,75s,20.36
2023-09-10T10:17:00,75s,21.53
2023-09-10T10:18:00,75s,25.18
2023-09-10T10:19:00,75s,24.24
2023-09-10T10:20:00,75s,25.03
2023-09-10T10:21:00,75s,25.00
2023-09-10T10:22:00,75s,24.99
2023-09-10T10:23:00,75s,25.05
2023-09-10T10:24:00,75s,24.95
2023-09-10T10:25:00,75s,24.82
2023-09-10T10:26:00,75s,24.70
2023-09-10T10:27:00,75s,24.62
2023-09-10T10:28:00,75s,24.40
2023-09-10T10:29:00,75s,23.89
2023-09-10T10:30:00,75s,23.44
2023-09-10T10:31:00,75s,22.44
2023-09-10T10:32:00,75s,21.85
2023-09-10T10:33:00,75s,20.82
2023-09-10T10:34:00,75s,20.12
2023-09-10T10:35:00,75s,20.10
2023-09-10T10:36:00,75s,20.23
2023-09-10T10:37:00,75s,20.15
2023-09-10T10:38:00,75s,20.14
2023-09-10T10:39:00,75s,20.13
2023-09-10T10:40:00,75s,20.10
2023-09-10T10:41:00,75s,20.05
2023-09-10T10:42:00,75s,20.14
2023-09-10T10:43:00,75s,20.09
2023-09-10T10:44:00,75s,20.05
2023-09-10T10:45:00,75s,20.04
2023-09-10T10:46:00,75s,20.34
2023-09-10T10:47:00,75s,20.37
2023-09-10T10:48:00,75s,20.18
2023-09-10T10:49:00,75s,20.06
2023-09-10T10:50:00,75s,20.17
2023-09-10T10:51:00,75s,20.10
2023-09-10T10:52:00,75s,20.15
2023-09-10T10:53:00,75s,20.17
2023-09-10T10:54:00,75s,20.22
2023-09-10T10:55:00,75s,20.24
2023-09-10T10:56:00,75s,20.16
2023-09-10T10:57:00,75s,20.20
2023-09-10T10:58:00,75s,20.23
2023-09-10T10:59:00,75s,20.51
2023-09-10T11:00:00,75s,20.23
2023-09-10T11:01:00,75s,20.21
2023-09-10T11:02:00,75s,20.68
2023-09-10T11:03:00,75s,20.24
2023-09-10T11:04:00,75s,20.23
2023-09-10T11:05:00,75s,20.29
2023-09-10T11:06:00,75s,20.31
2023-09-10T11:07:00,75s,20.19
2023-09-10T11:08:00,75s,20.20
2023-09-10T11:09:00,75s,20.43
2023-09-10T11:10:00,75s,21.34
2023-09-10T11:11:00,75s,23.31
2023-09-10T11:12:00,75s,24.59
2023-09-10T11:13:00,75s,25.63
2023-09-10T11:14:00,75s,25.80
2023-09-10T11:15:00,75s,25.80
2023-09-10T11:16:00,75s,25.79
2023-09-10T11:17:00,75s,25.65
2023-09-10T11:18:00,75s,25.68
2023-09-10T11:19:00,75s,25.66
2023-09-10T11:20:00,75s,25.86
2023-09-10T11:21:00,75s,25.82
2023-09-10T11:22:00,75s,25.85
2023-09-10T11:23:00,75s,25.68
2023-09-10T11:24:00,75s,25.65
2023-09-10T11:25:00,75s,25.54
2023-09-10T11:26:00,75s,25.54
2023-09-10T11:27:00,75s,25.51
2023-09-10T11:28:00,75s,25.42
2023-09-10T11:29:00,75s,25.27
2023-09-10T11:30:00,75s,25.30
2023-09-10T11:31:00,75s,25.03
2023-09-10T11:32:00,75s,23.68
2023-09-10T11:33:00,75s,20.17
2023-09-10T11:34:00,75s,21.11
2023-09-10T11:35:00,75s,20.11
2023-09-10T11:36:00,75s,20.06
2023-09-10T11:37:00,75s,20.40
2023-09-10T11:38:00,75s,20.07
2023-09-10T11:39:00,75s,20.09
2023-09-10T11:40:00,75s,20.08
2023-09-10T11:41:00,75s,20.13
2023-09-10T11:42:00,75s,20.08
2023-09-10T11:43:00,75s,20.04
2023-09-10T11:44:00,75s,20.05
2023-09-10T11:45:00,75s,20.15
2023-09-10T11:46:00,75s,20.57
2023-09-10T11:47:00,75s,20.22
2023-09-10T11:48:00,75s,20.27
2023-09-10T11:49:00,75s,20.28
2023-09-10T11:50:00,75s,20.16
2023-09-10T11:51:00,75s,20.19
2023-09-10T11:52:00,75s,20.19
2023-09-10T11:53:00,75s,20.15
2023-09-10T11:54:00,75s,20.12
2023-09-10T11:55:00,75s,20.11
2023-09-10T11:56:00,75s,20.15
2023-09-10T11:57:00,75s,20.13
2023-09-10T11:58:00,75s,20.21
2023-09-10T11:59:00,75s,20.29
2023-09-10T12:00:00,75s,20.37
2023-09-10T12:01:00,75s,20.27
2023-09-10T12:02:00,75s,20.37
2023-09-10T12:03:00,75s,20.81
2023-09-10T12:04:00,75s,26.70
2023-09-10T12:05:00,75s,26.60
2023-09-10T12:06:00,75s,25.82
2023-09-10T12:07:00,75s,26.51
2023-09-10T12:08:00,75s,26.40
2023-09-10T12:09:00,75s,26.49
2023-09-10T12:10:00,75s,26.42
2023-09-10T12:11:00,75s,26.34
2023-09-10T12:12:00,75s,26.88
2023-09-10T12:13:00,75s,26.23
2023-09-10T12:14:00,75s,26.16
2023-09-10T12:15:00,75s,26.14
2023-09-10T12:16:00,75s,26.31
2023-09-10T12:17:00,75s,25.91
2023-09-10T12:18:00,75s,25.93
2023-09-10T12:19:00,75s,25.90
2023-09-10T12:20:00,75s,25.84
2023-09-10T12:21:00,75s,25.98
2023-09-10T12:22:00,75s,25.82
2023-09-10T12:23:00,75s,25.97
2023-09-10T12:24:00,75s,25.70
2023-09-10T12:25:00,75s,25.57
2023-09-10T12:26:00,75s,25.48
2023-09-10T12:27:00,75s,25.55
2023-09-10T12:28:00,75s,25.40
2023-09-10T12:29:00,75s,24.10
2023-09-10T12:30:00,75s,22.87
2023-09-10T12:31:00,75s,21.40
2023-09-10T12:32:00,75s,20.46
2023-09-10T12:33:00,75s,20.51
2023-09-10T12:34:00,75s,20.51
2023-09-10T12:35:00,75s,29.51
2023-09-10T12:36:00,75s,29.19
2023-09-10T12:37:00,75s,29.45
2023-09-10T12:38:00,75s,29.56
2023-09-10T12:39:00,75s,29.24
2023-09-10T12:40:00,75s,28.94
2023-09-10T12:41:00,75s,20.45
2023-09-10T12:42:00,75s,20.40
2023-09-10T12:43:00,75s,20.11
2023-09-10T12:44:00,75s,20.18
2023-09-10T12:45:00,75s,20.23
2023-09-10T12:46:00,75s,20.14
2023-09-10T12:47:00,75s,20.25
2023-09-10T12:48:00,75s,20.46
2023-09-10T12:49:00,75s,20.81
2023-09-10T12:50:00,75s,20.55
2023-09-10T12:51:00,75s,20.59
2023-09-10T12:52:00,75s,20.53
2023-09-10T12:53:00,75s,20.45
2023-09-10T12:54:00,75s,20.51
2023-09-10T12:55:00,75s,20.89
2023-09-10T12:56:00,75s,26.67
2023-09-10T12:57:00,75s,21.87
2023-09-10T12:58:00,75s,23.80
2023-09-10T12:59:00,75s,25.68
2023-09-10T13:00:00,75s,27.04
2023-09-10T13:01:00,75s,27.20
2023-09-10T13:02:00,75s,27.23
2023-09-10T13:03:00,75s,26.79
2023-09-10T13:04:00,75s,26.66
2023-09-10T13:05:00,75s,27.05
2023-09-10T13:06:00,75s,26.68
2023-09-10T13:07:00,75s,26.47
2023-09-10T13:08:00,75s,26.51
2023-09-10T13:09:00,75s,26.56
2023-09-10T13:10:00,75s,25.70
2023-09-10T13:11:00,75s,25.85
2023-09-10T13:12:00,75s,26.36
2023-09-10T13:13:00,75s,25.74
2023-09-10T13:14:00,75s,25.66
2023-09-10T13:15:00,75s,25.50
2023-09-10T13:16:00,75s,25.73
2023-09-10T13:17:00,75s,24.78
2023-09-10T13:18:00,75s,25.33
2023-09-10T13:19:00,75s,25.28
2023-09-10T13:20:00,75s,20.68
2023-09-10T13:21:00,75s,22.45
2023-09-10T13:22:00,75s,20.96
2023-09-10T13:23:00,75s,20.43
2023-09-10T13:24:00,75s,20.49
2023-09-10T13:25:00,75s,20.49
2023-09-10T13:26:00,75s,20.53
2023-09-10T13:27:00,75s,20.70
2023-09-10T13:28:00,75s,20.41
2023-09-10T13:29:00,75s,20.39
2023-09-10T13:30:00,75s,20.40
2023-09-10T13:31:00,75s,20.46